Weather History for Sparta, TN

Change the Weather History Date:

Sunday, March 17, 2013

  Actual Average (KCSV) Record (KCSV)
Temperature  
Mean Temperature 57 °F 47 °F  
Max Temperature 68 °F 58 °F 76 °F (1963)
Min Temperature 46 °F 37 °F 18 °F (1988)
Degree Days  
Heating Degree Days 8    
Month to date heating degree days  
Since 1 July heating degree days  
Cooling Degree Days 0    
Month to date cooling degree days  
Year to date cooling degree days  
Growing Degree Days 7 (Base 50)    
Moisture  
Dew Point 48 °F    
Average Humidity 76    
Maximum Humidity 93    
Minimum Humidity 56    
Precipitation  
Precipitation 0.00 in 0.16 in 3.69 in (2002)
Month to date precipitation 2.60  
Year to date precipitation 11.82  
Sea Level Pressure  
Sea Level Pressure 29.90 in    
Wind  
Wind Speed 3 mph (North)    
Max Wind Speed 9 mph    
Max Gust Speed -    
Visibility 10 miles    
Events      
T = Trace of Precipitation, MM = Missing Value Source: NWS Daily Summary

Daily Weather History Graph

Daily Weather History Graph

Search for Another Location

Airport:

Trip Planner

Search our weather history database for the weather conditions in past years. The results will help you decide how hot, cold, wet, or windy it might be!

Date:

Astronomy

Mar. 17, 2013 Rise Set
Actual Time 6:49 AM CDT 6:51 PM CDT
Civil Twilight 6:24 AM CDT 7:17 PM CDT
Nautical Twilight 5:54 AM CDT 7:47 PM CDT
Astronomical Twilight 5:24 AM CDT 8:17 PM CDT
Moon 10:12 AM CDT (3/17) No Moon Set
Length of Visible Light 12h 52m
Length of Day
12h 01m
Waxing Crescent, 31% of the Moon is Illuminated
Mar 17
Waxing Crescent
Mar 19
First Quarter
Mar 27
Full
Apr 2
Last Quarter
Apr 10
New

Hourly Weather History & Observations

Time (CDT) Temp. Windchill Dew Point Humidity Pressure Visibility Wind Dir Wind Speed Gust Speed Precip Events Conditions
12:15 AM 59.0 °F - 48.2 °F 67% 29.92 in 10.0 mi Calm Calm - N/A   Mostly Cloudy
12:35 AM 59.0 °F - 48.2 °F 67% 29.92 in 10.0 mi North 3.5 mph - N/A   Mostly Cloudy
12:55 AM 57.2 °F - 48.2 °F 72% 29.91 in 10.0 mi NE 3.5 mph - N/A   Overcast
1:15 AM 57.2 °F - 48.2 °F 72% 29.92 in 10.0 mi NNE 4.6 mph - N/A   Overcast
1:35 AM 57.2 °F - 48.2 °F 72% 29.93 in 10.0 mi NNW 4.6 mph - N/A   Overcast
1:55 AM 57.2 °F - 48.2 °F 72% 29.92 in 10.0 mi North 3.5 mph - N/A   Overcast
2:15 AM 55.4 °F - 46.4 °F 72% 29.92 in 10.0 mi North 3.5 mph - N/A   Overcast
2:35 AM 53.6 °F - 46.4 °F 77% 29.92 in 10.0 mi North 3.5 mph - N/A   Scattered Clouds
2:55 AM 53.6 °F - 46.4 °F 77% 29.90 in 10.0 mi North 3.5 mph - N/A   Partly Cloudy
3:15 AM 51.8 °F - 46.4 °F 82% 29.90 in 10.0 mi Calm Calm - N/A   Partly Cloudy
3:35 AM 50.0 °F - 44.6 °F 82% 29.90 in 10.0 mi Calm Calm - N/A   Mostly Cloudy
3:55 AM 48.2 °F - 46.4 °F 93% 29.90 in 10.0 mi Calm Calm - N/A   Mostly Cloudy
4:15 AM 48.2 °F - 44.6 °F 87% 29.90 in 10.0 mi Calm Calm - N/A   Scattered Clouds
4:35 AM 48.2 °F - 44.6 °F 87% 29.90 in 10.0 mi Calm Calm - N/A   Scattered Clouds
4:55 AM 48.2 °F - 46.4 °F 93% 29.90 in 10.0 mi Calm Calm - N/A   Mostly Cloudy
5:15 AM 48.2 °F - 44.6 °F 87% 29.90 in 10.0 mi Calm Calm - N/A   Mostly Cloudy
5:35 AM 48.2 °F - 46.4 °F 93% 29.91 in 10.0 mi Calm Calm - N/A   Mostly Cloudy
5:55 AM 48.2 °F - 46.4 °F 93% 29.91 in 10.0 mi Calm Calm - N/A   Mostly Cloudy
6:15 AM 48.2 °F - 44.6 °F 87% 29.92 in 10.0 mi North 4.6 mph - N/A   Scattered Clouds
6:35 AM 48.2 °F - 46.4 °F 93% 29.93 in 10.0 mi NNE 3.5 mph - N/A   Partly Cloudy
6:55 AM 48.2 °F - 46.4 °F 93% 29.93 in 10.0 mi NNE 4.6 mph - N/A   Clear
7:15 AM 46.4 °F 45.2 °F 44.6 °F 93% 29.94 in 10.0 mi North 3.5 mph - N/A   Clear
7:35 AM 48.2 °F - 46.4 °F 93% 29.94 in 10.0 mi Calm Calm - N/A   Clear
7:55 AM 50.0 °F - 46.4 °F 87% 29.95 in 10.0 mi NNE 3.5 mph - N/A   Partly Cloudy
8:15 AM 50.0 °F - 46.4 °F 87% 29.96 in 10.0 mi North 3.5 mph - N/A   Scattered Clouds
8:35 AM 51.8 °F - 46.4 °F 82% 29.96 in 10.0 mi North 4.6 mph - N/A   Partly Cloudy
8:55 AM 53.6 °F - 48.2 °F 82% 29.96 in 10.0 mi North 5.8 mph - N/A   Clear
9:15 AM 53.6 °F - 48.2 °F 82% 29.97 in 10.0 mi North 3.5 mph - N/A   Clear
9:35 AM 53.6 °F - 48.2 °F 82% 29.96 in 10.0 mi North 4.6 mph - N/A   Scattered Clouds
9:55 AM 55.4 °F - 48.2 °F 77% 29.96 in 10.0 mi NE 4.6 mph - N/A   Mostly Cloudy
10:15 AM 55.4 °F - 48.2 °F 77% 29.96 in 10.0 mi Calm Calm - N/A   Partly Cloudy
10:35 AM 55.4 °F - 48.2 °F 77% 29.95 in 10.0 mi Calm Calm - N/A   Partly Cloudy
10:55 AM 57.2 °F - 50.0 °F 77% 29.95 in 10.0 mi Variable 3.5 mph - N/A   Clear
11:15 AM 59.0 °F - 50.0 °F 72% 29.95 in 10.0 mi Variable 3.5 mph - N/A   Partly Cloudy
11:35 AM 62.6 °F - 51.8 °F 68% 29.94 in 10.0 mi SW 6.9 mph - N/A   Partly Cloudy
11:55 AM 64.4 °F - 51.8 °F 64% 29.93 in 10.0 mi Variable 4.6 mph - N/A   Clear
12:15 PM 66.2 °F - 51.8 °F 60% 29.92 in 10.0 mi Variable 3.5 mph - N/A   Scattered Clouds
12:35 PM 66.2 °F - 51.8 °F 60% 29.92 in 10.0 mi WSW 9.2 mph - N/A   Mostly Cloudy
12:55 PM 64.4 °F - 51.8 °F 64% 29.90 in 10.0 mi Calm Calm - N/A   Mostly Cloudy
1:15 PM 66.2 °F - 51.8 °F 60% 29.89 in 10.0 mi SW 3.5 mph - N/A   Overcast
1:35 PM 66.2 °F - 51.8 °F 60% 29.87 in 10.0 mi WNW 6.9 mph - N/A   Mostly Cloudy
1:55 PM 66.2 °F - 51.8 °F 60% 29.87 in 10.0 mi WSW 9.2 mph - N/A   Mostly Cloudy
2:15 PM 68.0 °F - 53.6 °F 60% 29.86 in 10.0 mi WSW 8.1 mph - N/A   Mostly Cloudy
2:35 PM 68.0 °F - 51.8 °F 56% 29.86 in 10.0 mi Variable 6.9 mph - N/A   Unknown
2:55 PM 68.0 °F - 51.8 °F 56% 29.85 in 10.0 mi West 8.1 mph - N/A   Mostly Cloudy
3:15 PM 64.4 °F - 51.8 °F 64% 29.85 in 10.0 mi Variable 6.9 mph - N/A   Mostly Cloudy
3:35 PM 64.4 °F - 51.8 °F 64% 29.85 in 10.0 mi NNE 8.1 mph - N/A   Mostly Cloudy
3:55 PM 64.4 °F - 51.8 °F 64% 29.85 in 10.0 mi NNE 9.2 mph - N/A   Mostly Cloudy
4:15 PM 64.4 °F - 51.8 °F 64% 29.85 in 10.0 mi Variable 5.8 mph - N/A   Mostly Cloudy
4:35 PM 62.6 °F - 51.8 °F 68% 29.85 in 10.0 mi NNE 5.8 mph - N/A   Mostly Cloudy
4:55 PM 62.6 °F - 50.0 °F 63% 29.86 in 10.0 mi North 6.9 mph - N/A   Mostly Cloudy
5:15 PM 60.8 °F - 48.2 °F 63% 29.87 in 10.0 mi Variable 5.8 mph - N/A   Mostly Cloudy
5:35 PM 60.8 °F - 48.2 °F 63% 29.86 in 10.0 mi ENE 6.9 mph - N/A   Partly Cloudy
5:55 PM 60.8 °F - 48.2 °F 63% 29.86 in 10.0 mi NE 4.6 mph - N/A   Mostly Cloudy
6:15 PM 59.0 °F - 48.2 °F 67% 29.86 in 10.0 mi North 5.8 mph - N/A   Mostly Cloudy
6:35 PM 57.2 °F - 48.2 °F 72% 29.86 in 10.0 mi NE 3.5 mph - N/A   Mostly Cloudy
6:55 PM 57.2 °F - 48.2 °F 72% 29.86 in 10.0 mi NNE 3.5 mph - N/A   Scattered Clouds
7:15 PM 57.2 °F - 48.2 °F 72% 29.86 in 10.0 mi NNE 3.5 mph - N/A   Scattered Clouds
7:35 PM 55.4 °F - 48.2 °F 77% 29.86 in 10.0 mi Calm Calm - N/A   Partly Cloudy
7:55 PM 55.4 °F - 48.2 °F 77% 29.86 in 10.0 mi NNE 3.5 mph - N/A   Partly Cloudy
8:15 PM 53.6 °F - 46.4 °F 77% 29.86 in 10.0 mi Calm Calm - N/A   Clear
8:35 PM 51.8 °F - 46.4 °F 82% 29.85 in 10.0 mi Calm Calm - N/A   Clear
8:55 PM 48.2 °F - 46.4 °F 93% 29.85 in 10.0 mi Calm Calm - N/A   Clear
9:15 PM 46.4 °F - 44.6 °F 93% 29.86 in 10.0 mi Calm Calm - N/A   Clear
9:35 PM 46.4 °F - 44.6 °F 93% 29.86 in 10.0 mi Calm Calm - N/A   Clear
9:55 PM 46.4 °F 45.2 °F 44.6 °F 93% 29.86 in 10.0 mi SSW 3.5 mph - N/A   Clear
10:15 PM 48.2 °F - 46.4 °F 93% 29.87 in 10.0 mi SSW 4.6 mph - N/A   Clear
10:35 PM 53.6 °F - 46.4 °F 77% 29.87 in 10.0 mi South 4.6 mph - N/A   Clear
10:55 PM 53.6 °F - 46.4 °F 77% 29.87 in 10.0 mi South 3.5 mph - N/A   Clear
11:15 PM 53.6 °F - 46.4 °F 77% 29.86 in 10.0 mi South 3.5 mph - N/A   Clear
11:35 PM 55.4 °F - 46.4 °F 72% 29.86 in 10.0 mi South 5.8 mph - N/A   Clear
11:55 PM 55.4 °F - 46.4 °F 72% 29.85 in 10.0 mi SSE 6.9 mph - N/A   Partly Cloudy